STARLINK-32734, 62476

Orbit data source: Space-Track

STARLINK-32734, 62476 is a payload satellite owned by SpaceX/Seattle (US) in LEO that was launched on Tue, 31 Dec 2024 UTC via an FALCON 9 launch vehicle from the Air Force Eastern Test Range (AFETR). Payload-class satellites include a variety of spacecraft equipped with specific instruments for various scientific and technological missions. These include communications satellites like Starlink; space stations such as the ISS; scientific satellites like the Hubble; Earth observation satellites from companies like Planet Labs, Umbra, and HawkEye 360; GPS; miniature CubeSats for education and research; and military/defense satellites.

Loading next visibility...
Identifier
62476, 2024-254Q
Orbit
LEO
Last TLE update
13 hours ago
Origin
Manufacturer
SpaceX/Seattle
Mission
Operational Commercial Communications
Bus & Motor
STARLINK V2M, Unknown motor
Mass
730 kg wet, ~700 kg dry
Launch date (UTC)
2024-12-31 (6 months ago)
Launch vehicle
FALCON 9
Launch site
Air Force Eastern Test Range (AFETR)
Object type
Payload
Rocket body
Debris
Shape & HBR
Box + 2 Pan, 29 m
Radar Cross Section
33.884 m², Large (>1 m²)

Expand to show TLE details & history

TLE from 13 hours ago
0 STARLINK-32734
1 62476U 24254Q   25189.74826356  .00022186  00000-0  81302-3 0  9994
2 62476  43.0026 314.1686 0001840 270.8675  89.1966 15.27591190 30348
Epoch: 2025-07-08T17:57Z
TLE epoch observation values (Epoch: 2025-07-08T17:57:29.971Z)
Latitude
-0.00001°
Longitude
117.85491°
Altitude
482.774 km
Speed
7.626 km/s
True Right ascension
20h 56m 40s
True Declination
0° 00' 00"
Sunlit
Object was in full shadow at epoch
Visualization orbit readout
Latitude
41.49583°
Longitude
-135.81876°
Altitude
486.973 km
Speed
7.627 km/s
Apparent Right ascension
05h 32m 16s
Apparent Declination
2° 49' 26"
Sunlit
Object is in daylight
Visualization observer readout
Local Sidereal Time
19:07:27
Azimuth
32.846° NE
Elevation
-42.015°
Doppler factor
1
Orbital elements
Apogee altitude
486.223 km
Perigee altitude
483.698 km
Semi-major axis
6,863.097 km
Eccentricity
0.00018
Inclination
43.0026°
RAAN
314.1686°
Arg. of periapsis
270.8675°
True anomaly
Unknown
Mean anomaly
89.1966°
Eccentric anomaly
Unknown
Mean motion
3.81736 °/min
Orbital period
94.31 mins
BSTAR
0.00081302
Loading maneuver chart data...
Loading SW <> Apogee altitude chart data...
Loading historical data...
Loading historical data...
Loading historical data...
Loading historical data...
Loading historical data...
Loading historical data...
Loading historical data...

STARLINK-32734 Visibility forecast

Observer location: undefined°, undefined°

Span
Click to sort rows by Start time (UTC) header in descending order
Start Az.
Max El. time (UTC)
Max El. Az.
Max El.
End time (UTC)
End Az.
6 mins2025-07-09 11:25:01.859Z211.147° SW2025-07-09 11:28:01.859Z149.223° SSE28.348°2025-07-09 11:31:01.859Z87.344° E
5 mins2025-07-09 13:05:01.859Z266.338° W2025-07-09 13:07:01.859Z16.36° NNE43.147°2025-07-09 13:10:01.859Z69.93° E
5 mins2025-07-09 14:44:01.859Z295.974° NW2025-07-09 14:46:01.859Z4.667° NNE38.384°2025-07-09 14:49:01.859Z78.714° E
5 mins2025-07-09 16:23:01.859Z283.949° WNW2025-07-09 16:25:01.859Z216.859° SW44.242°2025-07-09 16:28:01.859Z116.308° SE
|